CW4859 Weather Reports


time (UTC)temp
C
wind
direction
speed
KPH
gust
KPH
rain 1hr
cm
rain 24hr
cm
rain mn
cm
humidity
%
barometer
mb
20260503190450 15 316 12.9 27.4 0.00 0.00 0.00 33 1009.5
20260503185953 15 272 12.9 24.1 0.00 0.00 0.00 34 1009.9
20260503185450 15 280 16.1 27.4 0.00 0.00 0.00 34 1009.9
20260503184953 15 248 17.7 33.8 0.00 0.00 0.00 34 1009.9
20260503184450 15 342 9.7 29.0 0.00 0.00 0.00 35 1010.3
20260503183950 15 322 17.7 27.4 0.00 0.00 0.00 34 1010.3
20260503183450 15 229 16.1 33.8 0.00 0.00 0.00 35 1010.3
20260503182950 15 248 8.0 25.7 0.00 0.00 0.00 35 1010.3
20260503182450 14 297 9.7 27.4 0.00 0.00 0.00 36 1010.3
20260503181950 14 243 20.9 35.4 0.00 0.00 0.00 35 1010.3
20260503181450 14 306 16.1 16.1 0.00 0.00 0.00 36 1010.3
20260503180953 14 154 4.8 29.0 0.00 0.00 0.00 38 1010.3
20260503180450 14 227 4.8 22.5 0.00 0.00 0.00 38 1010.3
20260503175950 13 232 3.2 27.4 0.00 0.00 0.00 36 1010.3
20260503175450 13 315 9.7 17.7 0.00 0.00 0.00 41 1010.3
20260503174950 13 209 3.2 27.4 0.00 0.00 0.00 41 1010.3
20260503174450 13 355 16.1 16.1 0.00 0.00 0.00 40 1010.3
20260503173950 13 305 14.5 19.3 0.00 0.00 0.00 40 1010.3
20260503173450 13 259 8.0 32.2 0.00 0.00 0.00 40 1010.3
20260503172950 13 278 24.1 33.8 0.00 0.00 0.00 37 1010.4
20260503172453 13 269 12.9 24.1 0.00 0.00 0.00 38 1010.4
20260503171950 13 313 16.1 17.7 0.00 0.00 0.00 39 1010.4
20260503171450 13 209 4.8 24.1 0.00 0.00 0.00 39 1010.5
20260503170950 13 253 17.7 35.4 0.00 0.00 0.00 38 1010.5
20260503170450 13 339 12.9 35.4 0.00 0.00 0.00 37 1010.5
20260503150950 11 231 9.7 19.3 0.00 0.00 0.00 44 1010.9
20260503150450 11 261 6.4 24.1 0.00 0.00 0.00 43 1010.9
20260503130950 9 274 8.0 25.7 0.00 0.00 0.00 52 1010.8
20260503130450 9 298 11.3 24.1 0.00 0.00 0.00 53 1010.8
20260503110452 8 333 9.7 20.9 0.00 0.00 0.00 56 1010.3
20260503090449 8 275 6.4 8.0 0.00 0.00 0.00 55 1008.7
20260503081449 8 332 3.2 9.7 0.00 0.00 0.00 54 1008.3
20260503080949 8 322 4.8 6.4 0.00 0.00 0.00 54 1008.3
20260503080449 8 315 4.8 8.0 0.00 0.00 0.00 54 1008.3
20260503072452 9 302 4.8 9.7 0.00 0.00 0.00 52 1008.3
20260503071949 9 325 6.4 9.7 0.00 0.00 0.00 52 1008.3
20260503071449 9 298 6.4 11.3 0.00 0.00 0.00 52 1008.3
20260503070949 9 314 6.4 12.9 0.00 0.00 0.00 52 1008.3
20260503070449 9 296 4.8 11.3 0.00 0.00 0.00 51 1008.3
20260503054949 10 233 3.2 11.3 0.00 0.00 0.00 50 1008.5
20260503054449 10 332 6.4 9.7 0.00 0.00 0.00 49 1008.7
20260503053949 10 277 3.2 6.4 0.00 0.00 0.00 50 1008.7
20260503053449 10 292 4.8 8.0 0.00 0.00 0.00 49 1008.7
20260503052949 10 319 8.0 9.7 0.00 0.00 0.00 49 1008.7
20260503052451 10 313 3.2 4.8 0.00 0.00 0.00 49 1008.7
20260503051949 10 287 1.6 6.4 0.00 0.00 0.00 49 1008.7
20260503051449 11 296 1.6 6.4 0.00 0.00 0.00 49 1008.8
20260503050948 11 234 4.8 9.7 0.00 0.00 0.00 49 1008.8
20260503050449 11 274 1.6 8.0 0.00 0.00 0.00 48 1008.8
20260503045948 11 323 8.0 12.9 0.00 0.00 0.00 48 1008.9
20260503045448 11 323 6.4 11.3 0.00 0.00 0.00 48 1008.9
20260503044949 11 279 4.8 9.7 0.00 0.00 0.00 48 1008.9
20260503044451 11 259 6.4 11.3 0.00 0.00 0.00 48 1008.9
20260503043949 11 246 4.8 8.0 0.00 0.00 0.00 47 1008.9
20260503043448 11 271 1.6 6.4 0.00 0.00 0.00 47 1008.9
20260503042948 11 306 4.8 9.7 0.00 0.00 0.00 48 1008.8
20260503042451 11 309 4.8 11.3 0.00 0.00 0.00 48 1008.8
20260503041948 11 301 6.4 11.3 0.00 0.00 0.00 48 1008.8
20260503041451 11 272 3.2 11.3 0.00 0.00 0.00 47 1009.0
20260503040951 11 329 4.8 12.9 0.00 0.00 0.00 48 1009.0
20260503040448 11 294 8.0 11.3 0.00 0.00 0.00 48 1009.0
20260503035948 11 305 4.8 11.3 0.00 0.00 0.00 48 1009.1
20260503035451 11 296 4.8 8.0 0.00 0.00 0.00 47 1009.1
20260503034948 11 322 3.2 11.3 0.00 0.00 0.00 47 1009.1
20260503034448 11 311 6.4 12.9 0.00 0.00 0.00 47 1008.9
20260503033951 11 310 4.8 9.7 0.00 0.00 0.00 47 1008.9
20260503033448 11 309 8.0 11.3 0.00 0.00 0.00 47 1008.9
20260503032948 11 264 4.8 11.3 0.00 0.00 0.00 47 1008.9
20260503032448 11 278 4.8 11.3 0.00 0.00 0.00 46 1008.9
20260503031948 12 286 4.8 8.0 0.00 0.00 0.00 46 1008.9
20260503031451 12 323 9.7 14.5 0.00 0.00 0.00 46 1008.9
20260503030951 12 313 8.0 11.3 0.00 0.00 0.00 45 1008.9
20260503030448 12 318 6.4 9.7 0.00 0.00 0.00 45 1008.9
20260503025948 12 270 6.4 11.3 0.00 0.00 0.00 46 1008.9
20260503025448 12 309 4.8 9.7 0.00 0.00 0.00 45 1008.9
20260503024948 12 293 8.0 12.9 0.00 0.00 0.00 44 1008.9
20260503024448 12 304 4.8 12.9 0.00 0.00 0.00 44 1009.1
20260503023948 12 342 9.7 14.5 0.00 0.00 0.00 44 1009.1
20260503023448 12 288 9.7 14.5 0.00 0.00 0.00 44 1009.1
20260503022948 12 263 8.0 11.3 0.00 0.00 0.00 44 1009.2
20260503022451 12 296 4.8 6.4 0.00 0.00 0.00 44 1009.2
20260503021948 12 345 6.4 9.7 0.00 0.00 0.00 44 1009.2
20260503021448 12 281 3.2 8.0 0.00 0.00 0.00 45 1009.0
20260503020948 12 311 6.4 8.0 0.00 0.00 0.00 45 1009.0
20260503020448 12 302 1.6 8.0 0.00 0.00 0.00 44 1009.0
20260503015948 12 252 4.8 9.7 0.00 0.00 0.00 44 1008.8
20260503015448 12 318 11.3 11.3 0.00 0.00 0.00 45 1008.8
20260503014948 12 302 6.4 11.3 0.00 0.00 0.00 46 1008.8
20260503014448 12 305 4.8 12.9 0.00 0.00 0.00 45 1008.8
20260503013951 13 317 8.0 9.7 0.00 0.00 0.00 44 1008.8
20260503013448 13 309 8.0 11.3 0.00 0.00 0.00 44 1008.8
20260503012948 13 298 9.7 9.7 0.00 0.00 0.00 45 1009.0
20260503012448 13 306 4.8 12.9 0.00 0.00 0.00 43 1009.0
20260503011948 13 289 4.8 11.3 0.00 0.00 0.00 44 1009.0
20260503011448 13 250 6.4 11.3 0.00 0.00 0.00 44 1008.8
20260503010948 13 254 11.3 12.9 0.00 0.00 0.00 43 1008.8
20260503010448 13 290 1.6 11.3 0.00 0.00 0.00 42 1008.8
20260503005948 13 261 6.4 11.3 0.00 0.00 0.00 42 1008.6
20260503005448 13 277 3.2 6.4 0.00 0.00 0.00 42 1008.6
20260503004948 13 298 3.2 8.0 0.00 0.00 0.00 42 1008.6
20260503004451 13 268 4.8 11.3 0.00 0.00 0.00 41 1008.5
20260503003948 13 330 3.2 11.3 0.00 0.00 0.00 41 1008.5
20260503003448 13 306 1.6 6.4 0.00 0.00 0.00 41 1008.5
20260503002948 14 304 3.2 11.3 0.00 0.00 0.00 41 1008.3
20260503002448 14 321 6.4 9.7 0.00 0.00 0.00 40 1008.3
20260503001948 14 296 6.4 12.9 0.00 0.00 0.00 40 1008.3
20260503001448 14 252 4.8 9.7 0.00 0.00 0.00 40 1008.3
20260503000948 14 309 6.4 8.0 0.00 0.00 0.00 40 1008.3
20260503000448 14 319 6.4 9.7 0.00 0.00 0.00 39 1008.3
20260502235948 14 308 4.8 11.3 0.00 0.00 0.00 40 1008.3
20260502235448 15 301 8.0 11.3 0.00 0.00 0.00 39 1008.3
20260502234948 15 273 11.3 14.5 0.00 0.00 0.00 39 1008.3
20260502234448 15 319 3.2 8.0 0.00 0.00 0.00 39 1008.2
20260502233948 15 283 4.8 9.7 0.00 0.00 0.00 39 1008.2
20260502233448 15 287 1.6 8.0 0.00 0.00 0.00 39 1008.2
20260502232951 15 299 1.6 4.8 0.00 0.00 0.00 40 1008.3
20260502232448 15 313 3.2 9.7 0.00 0.00 0.00 38 1008.3
20260502231948 15 272 0.0 9.7 0.00 0.00 0.00 37 1008.3
20260502231451 15 278 4.8 14.5 0.00 0.00 0.00 37 1008.2
20260502230948 15 269 8.0 11.3 0.00 0.00 0.00 37 1008.2
20260502230448 15 265 3.2 12.9 0.00 0.00 0.00 38 1008.2
20260502225948 15 287 6.4 9.7 0.00 0.00 0.00 39 1008.1
20260502225448 15 260 3.2 8.0 0.00 0.00 0.00 38 1008.1
20260502224948 15 238 1.6 12.9 0.00 0.00 0.00 40 1008.1
20260502224448 15 313 9.7 12.9 0.00 0.00 0.00 38 1008.0
20260502223948 15 265 4.8 12.9 0.00 0.00 0.00 38 1008.0
20260502223448 15 266 6.4 16.1 0.00 0.00 0.00 38 1008.0
20260502222948 15 322 8.0 14.5 0.00 0.00 0.00 38 1007.8
20260502222448 15 323 14.5 16.1 0.00 0.00 0.00 37 1007.8
20260502221948 15 275 8.0 11.3 0.00 0.00 0.00 39 1007.8
20260502221448 15 317 3.2 14.5 0.00 0.00 0.00 38 1007.9
20260502220948 16 340 11.3 19.3 0.00 0.00 0.00 37 1007.9
20260502220450 16 299 12.9 19.3 0.00 0.00 0.00 37 1007.9
20260502215948 16 283 8.0 17.7 0.00 0.00 0.00 36 1008.1
20260502215448 16 0 3.2 11.3 0.00 0.00 0.00 39 1008.1
20260502214948 16 336 4.8 16.1 0.00 0.00 0.00 38 1008.1
20260502214451 16 287 8.0 16.1 0.00 0.00 0.00 39 1007.9
20260502213951 16 327 3.2 16.1 0.00 0.00 0.00 39 1007.9
20260502213448 16 319 3.2 9.7 0.00 0.00 0.00 39 1007.9
20260502212948 16 300 6.4 8.0 0.00 0.00 0.00 40 1007.7
20260502212448 16 329 8.0 12.9 0.00 0.00 0.00 40 1007.7
20260502211948 16 324 6.4 14.5 0.00 0.00 0.00 40 1007.7
20260502211448 16 5 3.2 16.1 0.00 0.00 0.00 40 1007.7
20260502210950 16 9 9.7 19.3 0.00 0.00 0.00 40 1007.7
20260502210448 16 307 11.3 14.5 0.00 0.00 0.00 41 1007.7
20260502205948 16 42 12.9 19.3 0.00 0.00 0.00 40 1007.5
20260502205451 16 271 4.8 14.5 0.00 0.00 0.00 39 1007.5
20260502204948 16 267 1.6 12.9 0.00 0.00 0.00 39 1007.5
20260502204447 16 318 11.3 19.3 0.00 0.00 0.00 38 1007.7
20260502203948 16 5 6.4 20.9 0.00 0.00 0.00 38 1007.7
20260502203450 16 343 17.7 17.7 0.00 0.00 0.00 38 1007.7
20260502202948 16 321 6.4 14.5 0.00 0.00 0.00 38 1007.7
20260502202450 16 298 12.9 20.9 0.00 0.00 0.00 38 1007.7
20260502201950 16 281 8.0 12.9 0.00 0.00 0.00 38 1007.7
20260502201448 16 319 4.8 12.9 0.00 0.00 0.00 37 1007.8
20260502200947 16 275 9.7 16.1 0.00 0.00 0.00 38 1007.8
20260502200447 16 298 8.0 20.9 0.00 0.00 0.00 38 1007.8
20260502195950 16 315 8.0 17.7 0.00 0.00 0.00 37 1008.2
20260502195447 16 309 16.1 19.3 0.00 0.00 0.00 36 1008.2
20260502194947 16 323 8.0 17.7 0.00 0.00 0.00 37 1008.2
20260502194447 16 284 6.4 12.9 0.00 0.00 0.00 35 1008.3
20260502193947 16 349 9.7 14.5 0.00 0.00 0.00 35 1008.3
20260502193447 16 313 8.0 16.1 0.00 0.00 0.00 37 1008.3
20260502192947 16 340 14.5 20.9 0.00 0.00 0.00 36 1008.7
20260502192447 16 309 4.8 22.5 0.00 0.00 0.00 38 1008.7
20260502191947 16 290 11.3 20.9 0.00 0.00 0.00 36 1008.7
20260502191447 17 288 6.4 20.9 0.00 0.00 0.00 37 1008.8
20260502190947 17 299 1.6 16.1 0.00 0.00 0.00 38 1008.8